Pendleton, OR

12:49 AM PDT on September 26, 2016 (GMT -0700)
Eastern Oreg Regional At Pendleton

Weather History for KPDT - March, 2013

Change the Weather History Date:

Monday, March 4, 2013

  Actual Average Record
Temperature  
Mean Temperature 37 °F 42 °F  
Max Temperature 51 °F 52 °F 75 °F (1968)
Min Temperature 23 °F 33 °F 7 °F (1896)
Degree Days  
Heating Degree Days 28 23  
Month to date heating degree days 83 93  
Since 1 July heating degree days 3816 3992  
Cooling Degree Days 0 0  
Month to date cooling degree days 0 0  
Year to date cooling degree days 0 0  
Moisture  
Dew Point 20 °F    
Average Humidity 52    
Maximum Humidity 81    
Minimum Humidity 22    
Precipitation  
Precipitation 0.00 in 0.04 in 1.00 in (1983)
Month to date precipitation T 0.18  
Year to date precipitation 1.37 2.72  
Snow  
Snow 0.00 in 0.00 in 3.20 in (1978)
Month to date snowfall 0.0 0.2  
Year to date snowfall 0.1 7.2  
Since 1 July snowfall 1.9 14.7  
Snow Depth 0.00 in    
Sea Level Pressure  
Sea Level Pressure 30.15 in    
Wind  
Wind Speed 7 mph (ESE)    
Max Wind Speed 20 mph    
Max Gust Speed 23 mph    
Visibility 10 miles    
Events      
T = Trace of Precipitation, MM = Missing Value Source: NWS Daily Summary

Daily Weather History Graph

Daily Weather History Graph

Search for Another Location

Airport or City:

Trip Planner

Search our weather history database for the weather conditions in past years. The results will help you decide how hot, cold, wet, or windy it might be!

Date:

Astronomy

Mar. 04, 2013 Rise Set
Actual Time 6:27 AM PST 5:46 PM PST
Civil Twilight 5:58 AM PST 6:16 PM PST
Nautical Twilight 5:23 AM PST 6:50 PM PST
Astronomical Twilight 4:49 AM PST 7:25 PM PST
Moon 12:55 AM PST (3/4) 10:19 AM PST (3/4)
Length of Visible Light 12h 18m
Length of Day
11h 18m
Waning Gibbous, 51% of the Moon is Illuminated
Mar 4
Waning Gibbous
Mar 4
Last Quarter
Mar 11
New
Mar 19
First Quarter
Mar 27
Full

Hourly Weather History & Observations

Time (PST) Temp. Windchill Dew Point Humidity Pressure Visibility Wind Dir Wind Speed Gust Speed Precip Events Conditions
12:53 AM 32.0 °F 27.5 °F 19.9 °F 61% 30.24 in 10.0 mi South 4.6 mph - N/A   Clear
1:53 AM 28.0 °F 22.8 °F 21.0 °F 75% 30.25 in 10.0 mi SSE 4.6 mph - N/A   Clear
2:53 AM 24.1 °F 17.0 °F 19.0 °F 81% 30.24 in 10.0 mi SE 5.8 mph - N/A   Clear
3:53 AM 24.1 °F 15.2 °F 19.9 °F 84% 30.25 in 10.0 mi SE 8.1 mph - N/A   Clear
4:53 AM 26.1 °F 17.6 °F 21.0 °F 81% 30.25 in 10.0 mi SE 8.1 mph - N/A   Clear
5:53 AM 24.1 °F 14.4 °F 19.9 °F 84% 30.26 in 10.0 mi ESE 9.2 mph - N/A   Clear
6:53 AM 26.1 °F 17.6 °F 21.0 °F 81% 30.27 in 10.0 mi ESE 8.1 mph - N/A   Clear
7:53 AM 30.0 °F 25.2 °F 23.0 °F 75% 30.27 in 10.0 mi SSE 4.6 mph - N/A   Clear
8:53 AM 35.1 °F 31.0 °F 21.9 °F 59% 30.27 in 10.0 mi ESE 4.6 mph - N/A   Clear
9:53 AM 39.9 °F - 21.9 °F 49% 30.25 in 10.0 mi Calm Calm - N/A   Clear
10:53 AM 44.1 °F 40.1 °F 21.0 °F 40% 30.22 in 10.0 mi NE 6.9 mph - N/A   Clear
11:53 AM 48.0 °F - 19.9 °F 33% 30.20 in 10.0 mi East 5.8 mph - N/A   Clear
12:53 PM 48.0 °F - 15.1 °F 27% 30.16 in 10.0 mi Variable 3.5 mph - N/A   Clear
1:53 PM 50.0 °F - 14.0 °F 24% 30.12 in 10.0 mi ENE 5.8 mph - N/A   Clear
2:53 PM 51.1 °F - 19.0 °F 28% 30.11 in 10.0 mi NE 8.1 mph - N/A   Clear
3:53 PM 50.0 °F - 19.9 °F 31% 30.08 in 10.0 mi NE 15.0 mph - N/A   Clear
4:53 PM 46.9 °F - 23.0 °F 39% 30.06 in 10.0 mi NE 17.3 mph - N/A   Clear
5:53 PM 42.1 °F 34.5 °F 23.0 °F 47% 30.04 in 10.0 mi NE 15.0 mph - N/A   Clear
6:53 PM 37.9 °F 29.2 °F 24.1 °F 57% 30.04 in 10.0 mi NE 15.0 mph - N/A   Clear
7:53 PM 37.9 °F 30.9 °F 21.0 °F 51% 30.02 in 10.0 mi ESE 10.4 mph - N/A   Clear
8:53 PM 35.1 °F 30.1 °F 21.9 °F 59% 30.02 in 10.0 mi ESE 5.8 mph - N/A   Clear
9:53 PM 36.0 °F 31.1 °F 19.0 °F 50% 30.00 in 10.0 mi ESE 5.8 mph - N/A   Clear
11:53 PM 30.9 °F - 19.9 °F 64% 29.97 in 10.0 mi Calm Calm - N/A   Clear